International Skating Union - Official Site

ISU World Allround Speed Skating Championships 2015
March 7 - 8, 2015

Draw | Lap Times | Index | Classification

Referee: Dan  IMMERFALL  (USA)
Starter: Sung-Yeol  JAEGAL  (KOR)
StartTime: EndTime: Air Temp: Ice Temp: Humidity:
13:23 14:24 18℃ -7℃ 30%
Result 3000m Ladies
Rankings as of Mar 7 2015 2:43PM
Rank: No.: Name: Nation: Time: Behind: Points:
1 7 Martina  Sábliková CZE CZE 3:55.10200m - 19.88 - (19.8)
600m - 49.65 - (29.7)
1000m - 1:19.71 - (30.0)
1400m - 1:50.20 - (30.4)
1800m - 2:20.87 - (30.6)
2200m - 2:51.81 - (30.9)
2600m - 3:23.21 - (31.4)
3000m - 3:55.10 - (31.8)
39.183
2 17 Ireen  Wüst NED NED 4:00.34200m - 19.69 - (19.6)
600m - 49.71 - (30.0)
1000m - 1:19.69 - (29.9)
1400m - 1:50.28 - (30.5)
1800m - 2:21.32 - (31.0)
2200m - 2:53.17 - (31.8)
2600m - 3:26.36 - (33.1)
3000m - 4:00.34 - (33.9)
5.24 40.056
3 15 Linda  de Vries NED NED 4:02.41200m - 19.63 - (19.6)
600m - 50.19 - (30.5)
1000m - 1:20.84 - (30.6)
1400m - 1:51.79 - (30.9)
1800m - 2:23.29 - (31.5)
2200m - 2:55.63 - (32.3)
2600m - 3:28.46 - (32.8)
3000m - 4:02.41 - (33.9)
7.31 40.401
4 16 Marije  Joling NED NED 4:02.85200m - 19.64 - (19.6)
600m - 49.83 - (30.1)
1000m - 1:20.18 - (30.3)
1400m - 1:51.39 - (31.2)
1800m - 2:23.74 - (32.3)
2200m - 2:56.69 - (32.9)
2600m - 3:29.61 - (32.9)
3000m - 4:02.85 - (33.2)
7.75 40.475
5 9 Claudia  Pechstein GER GER 4:02.93200m - 20.47 - (20.4)
600m - 51.53 - (31.0)
1000m - 1:23.22 - (31.6)
1400m - 1:55.07 - (31.8)
1800m - 2:27.10 - (32.0)
2200m - 2:59.02 - (31.9)
2600m - 3:31.14 - (32.1)
3000m - 4:02.93 - (31.7)
7.83 40.488
6 2 Ivanie  Blondin CAN CAN 4:04.03200m - 20.46 - (20.4)
600m - 51.55 - (31.0)
1000m - 1:22.92 - (31.3)
1400m - 1:54.29 - (31.3)
1800m - 2:25.86 - (31.5)
2200m - 2:57.56 - (31.7)
2600m - 3:30.13 - (32.5)
3000m - 4:04.03 - (33.9)
8.93 40.671
7 23 Natalya  Voronina RUS RUS 4:04.54200m - 20.40 - (20.4)
600m - 52.16 - (31.7)
1000m - 1:23.45 - (31.2)
1400m - 1:55.25 - (31.8)
1800m - 2:27.25 - (32.0)
2200m - 2:59.87 - (32.6)
2600m - 3:32.31 - (32.4)
3000m - 4:04.54 - (32.2)
9.44 40.756
8 18 Ida  Njåtun NOR NOR 4:04.89200m - 19.92 - (19.9)
600m - 50.87 - (30.9)
1000m - 1:22.36 - (31.4)
1400m - 1:54.30 - (31.9)
1800m - 2:26.62 - (32.3)
2200m - 2:59.12 - (32.5)
2600m - 3:31.94 - (32.8)
3000m - 4:04.89 - (32.9)
9.79 40.815
9 24 Heather  Richardson USA USA 4:05.00200m - 18.72 - (18.7)
600m - 48.99 - (30.2)
1000m - 1:20.23 - (31.2)
1400m - 1:52.57 - (32.3)
1800m - 2:25.32 - (32.7)
2200m - 2:58.09 - (32.7)
2600m - 3:31.16 - (33.0)
3000m - 4:05.00 - (33.8)
9.90 40.833
10 20 Luiza  Zlotkowska POL POL 4:06.79200m - 20.34 - (20.3)
600m - 51.56 - (31.2)
1000m - 1:23.41 - (31.8)
1400m - 1:55.23 - (31.8)
1800m - 2:27.85 - (32.6)
2200m - 3:00.15 - (32.3)
2600m - 3:33.05 - (32.9)
3000m - 4:06.79 - (33.7)
11.69 41.131
11 3 Kali  Christ CAN CAN 4:06.99200m - 20.67 - (20.6)
600m - 53.19 - (32.5)
1000m - 1:25.30 - (32.1)
1400m - 1:57.75 - (32.4)
1800m - 2:29.58 - (31.8)
2200m - 3:01.35 - (31.7)
2600m - 3:33.71 - (32.3)
3000m - 4:06.99 - (33.2)
11.89 41.165
12 12 Miho  Takagi JPN JPN 4:07.11200m - 20.25 - (20.2)
600m - 52.40 - (32.1)
1000m - 1:24.07 - (31.6)
1400m - 1:56.09 - (32.0)
1800m - 2:28.32 - (32.2)
2200m - 3:00.77 - (32.4)
2600m - 3:33.50 - (32.7)
3000m - 4:07.11 - (33.6)
12.01 41.185
13 13 Nana  Takagi JPN JPN 4:07.60200m - 20.34 - (20.3)
600m - 51.39 - (31.0)
1000m - 1:23.11 - (31.7)
1400m - 1:55.02 - (31.9)
1800m - 2:27.70 - (32.6)
2200m - 3:00.54 - (32.8)
2600m - 3:33.86 - (33.3)
3000m - 4:07.60 - (33.7)
12.50 41.266
14 11 Ayaka  Kikuchi JPN JPN 4:08.88200m - 20.12 - (20.1)
600m - 50.80 - (30.6)
1000m - 1:22.17 - (31.3)
1400m - 1:54.30 - (32.1)
1800m - 2:27.19 - (32.8)
2200m - 3:00.76 - (33.5)
2600m - 3:34.72 - (33.9)
3000m - 4:08.88 - (34.1)
13.78 41.480
15 10 Francesca  Lollobrigida ITA ITA 4:09.50200m - 20.31 - (20.3)
600m - 51.73 - (31.4)
1000m - 1:23.72 - (31.9)
1400m - 1:55.94 - (32.2)
1800m - 2:28.64 - (32.7)
2200m - 3:01.77 - (33.1)
2600m - 3:36.02 - (34.2)
3000m - 4:09.50 - (33.4)
14.40 41.583
16 14 Bo-Reum  Kim KOR KOR 4:10.00200m - 20.96 - (20.9)
600m - 52.67 - (31.7)
1000m - 1:24.79 - (32.1)
1400m - 1:57.06 - (32.2)
1800m - 2:29.40 - (32.3)
2200m - 3:01.96 - (32.5)
2600m - 3:35.33 - (33.3)
3000m - 4:10.00 - (34.6)
14.90 41.666
17 21 Olga  Graf RUS RUS 4:10.64200m - 21.54 - (21.5)
600m - 53.22 - (31.6)
1000m - 1:25.19 - (31.9)
1400m - 1:57.57 - (32.3)
1800m - 2:29.98 - (32.4)
2200m - 3:02.86 - (32.8)
2600m - 3:36.34 - (33.4)
3000m - 4:10.64 - (34.3)
15.54 41.773
18 19 Frida  van Megen NOR NOR 4:11.28200m - 21.54 - (21.5)
600m - 53.40 - (31.8)
1000m - 1:25.54 - (32.1)
1400m - 1:58.23 - (32.6)
1800m - 2:31.15 - (32.9)
2200m - 3:04.26 - (33.1)
2600m - 3:37.54 - (33.2)
3000m - 4:11.28 - (33.7)
16.18 41.880
19 6 Xin  Zhao CHN CHN 4:11.92200m - 20.91 - (20.9)
600m - 52.23 - (31.3)
1000m - 1:23.46 - (31.2)
1400m - 1:55.38 - (31.9)
1800m - 2:28.29 - (32.9)
2200m - 3:02.00 - (33.7)
2600m - 3:36.60 - (34.6)
3000m - 4:11.92 - (35.3)
16.82 41.986
20 1 Marina  Zuyeva BLR BLR 4:12.05200m - 20.71 - (20.7)
600m - 52.47 - (31.7)
1000m - 1:24.00 - (31.5)
1400m - 1:56.03 - (32.0)
1800m - 2:28.56 - (32.5)
2200m - 3:02.20 - (33.6)
2600m - 3:36.75 - (34.5)
3000m - 4:12.05 - (35.3)
16.95 42.008
21 8 Leia  Behlau GER GER 4:12.38200m - 20.77 - (20.7)
600m - 52.07 - (31.3)
1000m - 1:24.43 - (32.3)
1400m - 1:57.02 - (32.5)
1800m - 2:29.96 - (32.9)
2200m - 3:03.37 - (33.4)
2600m - 3:37.81 - (34.4)
3000m - 4:12.38 - (34.5)
17.28 42.063
22 22 Yuliya  Skokova RUS RUS 4:12.89200m - 20.38 - (20.3)
600m - 52.40 - (32.0)
1000m - 1:24.47 - (32.0)
1400m - 1:56.94 - (32.4)
1800m - 2:29.84 - (32.9)
2200m - 3:03.40 - (33.5)
2600m - 3:37.42 - (34.0)
3000m - 4:12.89 - (35.4)
17.79 42.148
23 4 Jiachen  Hao CHN CHN 4:13.00200m - 20.89 - (20.8)
600m - 52.47 - (31.5)
1000m - 1:24.67 - (32.2)
1400m - 1:57.84 - (33.1)
1800m - 2:31.54 - (33.7)
2200m - 3:05.11 - (33.5)
2600m - 3:39.06 - (33.9)
3000m - 4:13.00 - (33.9)
17.90 42.166
24 5 Jing  Liu CHN CHN 4:17.26200m - 20.65 - (20.6)
600m - 52.50 - (31.8)
1000m - 1:25.21 - (32.7)
1400m - 1:58.68 - (33.4)
1800m - 2:32.00 - (33.3)
2200m - 3:05.62 - (33.6)
2600m - 3:40.62 - (35.0)
3000m - 4:17.26 - (36.6)
22.16 42.876